Location: Kalberh�ni
(46.4610°N, 7.2453°E)
Time: 15:15:20
(UTC+00:00)

Lacrosse 4 Rocket - Pass Details

Date: 19 October 2021
Orbit: 537 x 619 km, 68.0° (Epoch: 04 December)

Event Time Altitude Azimuth Distance (km) Brightness Sun altitude
Rises 17:05:34 0° 341° (NNW) 2,786 5.1 -5.6°
Reaches altitude 10° 17:09:20 10° 15° (NNE) 1,907 3.8 -6.3°
Maximum altitude 17:10:48 12° 35° (NE) 1,817 3.6 -6.5°
Drops below altitude 10° 17:12:17 10° 55° (NE) 1,922 3.5 -6.8°
Enters shadow 17:13:19 - 67° (ENE) 2,098 3.7 -7.0°
